Camanche, IA

4:22 AM CDT on September 25, 2016 (GMT -0500)
Clinton Municipal

Weather History for KCWI - December, 2012

Change the Weather History Date:

Saturday, December 8, 2012

  Actual Average Record
Temperature  
Mean Temperature 34 °F -  
Max Temperature 37 °F 35 °F 63 °F (1991)
Min Temperature 30 °F 21 °F -6 °F (1958)
Degree Days  
Heating Degree Days 32    
Moisture  
Dew Point 29 °F    
Average Humidity 82    
Maximum Humidity 93    
Minimum Humidity 70    
Precipitation  
Precipitation 0.08 in - - ()
Sea Level Pressure  
Sea Level Pressure 30.03 in    
Wind  
Wind Speed 8 mph (NE)    
Max Wind Speed 18 mph    
Max Gust Speed -    
Visibility 8 miles    
Events      
Averages and records for this station are not official NWS values.
T = Trace of Precipitation, MM = Missing Value Source: NWS Daily Summary

Daily Weather History Graph

Daily Weather History Graph

Search for Another Location

Airport or City:

Trip Planner

Search our weather history database for the weather conditions in past years. The results will help you decide how hot, cold, wet, or windy it might be!

Date:

Astronomy

Dec. 08, 2012 Rise Set
Actual Time 7:16 AM CST 4:30 PM CST
Civil Twilight 6:45 AM CST 5:01 PM CST
Nautical Twilight 6:10 AM CST 5:36 PM CST
Astronomical Twilight 5:36 AM CST 6:10 PM CST
Moon 1:37 AM CST (12/8) 1:03 PM CST (12/8)
Length of Visible Light 10h 16m
Length of Day
9h 13m
Waning Crescent, 28% of the Moon is Illuminated
Dec 8
Waning Crescent
Dec 13
New
Dec 19
First Quarter
Dec 28
Full
Jan 4
Last Quarter

Hourly Weather History & Observations

Time (CST) Temp. Windchill Dew Point Humidity Pressure Visibility Wind Dir Wind Speed Gust Speed Precip Events Conditions
12:15 AM 32.0 °F 24.8 °F 28.4 °F 87% 29.94 in 2.5 mi North 8.1 mph - 0.02 in   Mostly Cloudy
12:35 AM 32.0 °F 24.2 °F 28.4 °F 87% 29.94 in 3.0 mi North 9.2 mph - 0.03 in   Mostly Cloudy
12:55 AM 32.0 °F 24.2 °F 30.2 °F 93% 29.94 in 2.5 mi North 9.2 mph - 0.04 in   Overcast
1:15 AM 32.0 °F 23.0 °F 30.2 °F 93% 29.95 in 2.5 mi North 11.5 mph - 0.01 in   Mostly Cloudy
1:35 AM 32.0 °F 23.0 °F 28.4 °F 87% 29.94 in 2.5 mi NNE 11.5 mph - 0.01 in   Scattered Clouds
1:55 AM 32.0 °F 23.0 °F 30.2 °F 93% 29.96 in 3.0 mi North 11.5 mph - 0.02 in   Mostly Cloudy
2:15 AM 32.0 °F 23.6 °F 30.2 °F 93% 29.96 in 3.0 mi NNE 10.4 mph - N/A   Overcast
2:35 AM 32.0 °F 24.2 °F 28.4 °F 87% 29.96 in 3.0 mi NNE 9.2 mph - 0.01 in   Overcast
2:55 AM 32.0 °F 24.2 °F 28.4 °F 87% 29.94 in 3.0 mi NE 9.2 mph - 0.01 in   Mostly Cloudy
3:15 AM 32.0 °F 25.6 °F 28.4 °F 87% 29.95 in 3.0 mi NE 6.9 mph - N/A   Scattered Clouds
3:35 AM 33.8 °F 27.0 °F 30.2 °F 87% 29.95 in 3.0 mi NNE 8.1 mph - N/A   Clear
3:55 AM 33.8 °F 28.6 °F 28.4 °F 81% 29.96 in 4.0 mi NNE 5.8 mph - 0.01 in   Scattered Clouds
4:15 AM 33.8 °F 28.6 °F 30.2 °F 87% 29.96 in 4.0 mi North 5.8 mph - N/A   Scattered Clouds
4:35 AM 33.8 °F 28.6 °F 28.4 °F 81% 29.97 in 4.0 mi North 5.8 mph - N/A   Scattered Clouds
4:55 AM 33.8 °F 27.7 °F 28.4 °F 81% 29.96 in 4.0 mi North 6.9 mph - N/A   Mostly Cloudy
5:15 AM 33.8 °F 29.6 °F 28.4 °F 81% 29.97 in 4.0 mi North 4.6 mph - N/A   Overcast
5:35 AM 33.8 °F 28.6 °F 28.4 °F 81% 29.98 in 4.0 mi North 5.8 mph - N/A   Overcast
5:55 AM 33.8 °F 28.6 °F 28.4 °F 81% 29.99 in 4.0 mi North 5.8 mph - N/A   Overcast
6:15 AM 32.0 °F 25.6 °F 28.4 °F 87% 30.00 in 5.0 mi North 6.9 mph - N/A   Overcast
6:35 AM 32.0 °F 25.6 °F 28.4 °F 87% 30.01 in 4.0 mi NNW 6.9 mph - N/A   Mostly Cloudy
6:55 AM 32.0 °F 26.4 °F 28.4 °F 87% 30.01 in 4.0 mi NNW 5.8 mph - N/A   Scattered Clouds
7:15 AM 30.2 °F 24.3 °F 28.4 °F 93% 30.01 in 4.0 mi NNW 5.8 mph - N/A   Clear
7:35 AM 30.2 °F 24.3 °F 26.6 °F 86% 30.01 in 4.0 mi NNW 5.8 mph - N/A   Clear
7:55 AM 30.2 °F 23.4 °F 26.6 °F 86% 30.02 in 5.0 mi NNW 6.9 mph - N/A   Clear
8:15 AM 30.2 °F 24.3 °F 26.6 °F 86% 30.03 in 5.0 mi NNW 5.8 mph - N/A   Clear
8:35 AM 30.2 °F 23.4 °F 28.4 °F 93% 30.03 in 5.0 mi North 6.9 mph - N/A   Clear
8:55 AM 32.0 °F 26.4 °F 28.4 °F 87% 30.04 in 7.0 mi NNE 5.8 mph - N/A   Clear
9:15 AM 33.8 °F 25.8 °F 28.4 °F 81% 30.04 in 9.0 mi NNE 10.4 mph - N/A   Clear
9:35 AM 33.8 °F 26.4 °F 28.4 °F 81% 30.05 in 9.0 mi NNE 9.2 mph - N/A   Clear
9:55 AM 33.8 °F 26.4 °F 28.4 °F 81% 30.05 in 10.0 mi NE 9.2 mph - N/A   Clear
10:15 AM 35.6 °F 28.0 °F 28.4 °F 75% 30.06 in 10.0 mi NNE 10.4 mph - N/A   Clear
10:35 AM 35.6 °F 29.2 °F 30.2 °F 81% 30.06 in 10.0 mi NNE 8.1 mph - N/A   Scattered Clouds
10:55 AM 35.6 °F 29.9 °F 30.2 °F 81% 30.06 in 10.0 mi NNE 6.9 mph - N/A   Mostly Cloudy
11:15 AM 35.6 °F 30.7 °F 30.2 °F 81% 30.06 in 10.0 mi North 5.8 mph - N/A   Mostly Cloudy
11:35 AM 37.4 °F 31.4 °F 28.4 °F 70% 30.05 in 10.0 mi ENE 8.1 mph - N/A   Overcast
11:55 AM 37.4 °F 31.4 °F 28.4 °F 70% 30.05 in 10.0 mi ENE 8.1 mph - N/A   Mostly Cloudy
12:15 PM 37.4 °F 31.4 °F 30.2 °F 75% 30.05 in 10.0 mi East 8.1 mph - N/A   Overcast
12:35 PM 37.4 °F 31.4 °F 30.2 °F 75% 30.04 in 10.0 mi ENE 8.1 mph - N/A   Overcast
12:55 PM 37.4 °F 31.4 °F 30.2 °F 75% 30.04 in 10.0 mi ENE 8.1 mph - N/A   Overcast
1:15 PM 35.6 °F 27.5 °F 30.2 °F 81% 30.04 in 10.0 mi East 11.5 mph - N/A   Overcast
1:35 PM 35.6 °F 28.0 °F 30.2 °F 81% 30.04 in 10.0 mi NE 10.4 mph - N/A   Overcast
1:55 PM 35.6 °F 28.6 °F 30.2 °F 81% 30.05 in 10.0 mi NE 9.2 mph - N/A   Overcast
2:15 PM 35.6 °F 28.0 °F 28.4 °F 75% 30.05 in 10.0 mi East 10.4 mph - N/A   Overcast
2:35 PM 35.6 °F 29.2 °F 28.4 °F 75% 30.05 in 10.0 mi East 8.1 mph - N/A   Overcast
2:55 PM 35.6 °F 27.5 °F 30.2 °F 81% 30.05 in 10.0 mi East 11.5 mph - N/A   Overcast
3:15 PM 35.6 °F 29.2 °F 30.2 °F 81% 30.06 in 10.0 mi East 8.1 mph - N/A   Overcast
3:35 PM 35.6 °F 28.0 °F 28.4 °F 75% 30.06 in 10.0 mi East 10.4 mph - N/A   Overcast
3:55 PM 35.6 °F 29.2 °F 28.4 °F 75% 30.06 in 10.0 mi East 8.1 mph - N/A   Overcast
4:15 PM 35.6 °F 28.0 °F 28.4 °F 75% 30.06 in 10.0 mi East 10.4 mph - N/A   Overcast
4:35 PM 35.6 °F 29.9 °F 28.4 °F 75% 30.07 in 10.0 mi East 6.9 mph - N/A   Overcast
4:55 PM 33.8 °F 30.8 °F 28.4 °F 81% 30.08 in 10.0 mi East 3.5 mph - N/A   Mostly Cloudy
5:15 PM 33.8 °F 28.6 °F 28.4 °F 81% 30.07 in 10.0 mi East 5.8 mph - N/A   Mostly Cloudy
5:35 PM 33.8 °F 29.6 °F 28.4 °F 81% 30.07 in 10.0 mi ENE 4.6 mph - N/A   Scattered Clouds
5:55 PM 33.8 °F 29.6 °F 28.4 °F 81% 30.07 in 10.0 mi East 4.6 mph - N/A   Mostly Cloudy
6:15 PM 32.0 °F 27.5 °F 28.4 °F 87% 30.07 in 10.0 mi East 4.6 mph - N/A   Overcast
6:35 PM 32.0 °F 28.7 °F 28.4 °F 87% 30.08 in 10.0 mi East 3.5 mph - N/A   Mostly Cloudy
6:55 PM 32.0 °F 26.4 °F 28.4 °F 87% 30.07 in 10.0 mi East 5.8 mph - N/A   Scattered Clouds
7:15 PM 33.8 °F 27.7 °F 28.4 °F 81% 30.07 in 10.0 mi East 6.9 mph - N/A   Scattered Clouds
7:35 PM 33.8 °F 27.7 °F 28.4 °F 81% 30.08 in 10.0 mi East 6.9 mph - N/A   Mostly Cloudy
7:55 PM 33.8 °F 27.7 °F 28.4 °F 81% 30.08 in 10.0 mi ENE 6.9 mph - N/A   Scattered Clouds
8:15 PM 33.8 °F 25.8 °F 28.4 °F 81% 30.07 in 10.0 mi East 10.4 mph - N/A   Mostly Cloudy
8:35 PM 35.6 °F 29.2 °F 28.4 °F 75% 30.07 in 10.0 mi East 8.1 mph - N/A   Overcast
8:55 PM 35.6 °F 27.5 °F 28.4 °F 75% 30.06 in 10.0 mi East 11.5 mph - N/A   Mostly Cloudy
9:15 PM 35.6 °F 27.1 °F 30.2 °F 81% 30.06 in 10.0 mi East 12.7 mph - N/A   Mostly Cloudy
9:35 PM 35.6 °F 27.5 °F 30.2 °F 81% 30.06 in 10.0 mi East 11.5 mph - N/A   Scattered Clouds
9:55 PM 35.6 °F 27.5 °F 30.2 °F 81% 30.06 in 10.0 mi East 11.5 mph - N/A   Scattered Clouds
10:35 PM 35.6 °F 26.6 °F 30.2 °F 81% 30.05 in 10.0 mi East 13.8 mph - N/A   Clear
10:55 PM 37.4 °F 28.2 °F 30.2 °F 75% 30.05 in 10.0 mi East 16.1 mph - N/A   Clear
11:15 PM 37.4 °F 27.5 °F 28.4 °F 70% 30.05 in 10.0 mi ESE 18.4 mph - N/A   Partly Cloudy
11:35 PM 37.4 °F 28.5 °F 30.2 °F 75% 30.06 in 10.0 mi ESE 15.0 mph - N/A   Mostly Cloudy
11:55 PM 35.6 °F 25.5 °F 30.2 °F 81% 30.05 in 10.0 mi ESE 17.3 mph - N/A   Overcast